When you browse on this site, cookies collect data to enhance your experience and personalize the content and advertising you see.
Visit our Privacy Policy to learn more. By continuing to use the site, you agree to this use of cookies and data.
  • In Lithuania
  • List of Countries
  • For 7 days
  • Water Temperature
  • Satellite Maps
  • Weather Map
  • Weather Widgets
  • user-avatar
    Login

    Hourly Weather Eisenstadt

    Today, 24 April, Wednesday

    Time Temperature Precipitation Wind Pressure Humidity
    00:00 +8°C° 0 mm 2 mps 718 mmHg 95%
    01:00 +8°C° 0 mm 3 mps 718 mmHg 96%
    02:00 +8°C° 0 mm 3 mps 718 mmHg 96%
    03:00 +9°C° 0 mm 3 mps 718 mmHg 96%
    04:00 +8°C° 0 mm 4 mps 718 mmHg 95%
    05:00 +10°C° 0 mm 4 mps 719 mmHg 94%
    06:00 +9°C° 0 mm 5 mps 719 mmHg 92%
    07:00 +10°C° 0 mm 5 mps 719 mmHg 89%
    08:00 +11°C° 0 mm 6 mps 719 mmHg 84%
    09:00 +14°C° 0 mm 6 mps 719 mmHg 79%
    10:00 +15°C° 0 mm 6 mps 720 mmHg 74%
    11:00 +17°C° 0 mm 7 mps 720 mmHg 67%
    12:00 +20°C° 0 mm 7 mps 720 mmHg 60%
    13:00 +21°C° 0 mm 7 mps 720 mmHg 53%
    14:00 +21°C° 0 mm 7 mps 720 mmHg 54%
    15:00 +21°C° 0 mm 7 mps 720 mmHg 55%
    16:00 +21°C° 0 mm 7 mps 719 mmHg 55%
    17:00 +18°C° 0 mm 7 mps 719 mmHg 60%
    18:00 +17°C° 0 mm 6 mps 719 mmHg 65%
    19:00 +15°C° 0 mm 6 mps 719 mmHg 70%
    20:00 +15°C° 0 mm 6 mps 719 mmHg 71%
    21:00 +14°C° 0 mm 6 mps 719 mmHg 71%
    22:00 +14°C° 0 mm 6 mps 720 mmHg 72%
    23:00 +13°C° 0 mm 6 mps 720 mmHg 73%

    Tomorrow, 25 April, Thursday

    Time Temperature Precipitation Wind Pressure Humidity
    00:00 +13°C° 0 mm 6 mps 720 mmHg 73%
    01:00 +13°C° 0 mm 6 mps 720 mmHg 74%
    02:00 +12°C° 0 mm 5 mps 720 mmHg 78%
    03:00 +11°C° 0 mm 4 mps 720 mmHg 81%
    04:00 +11°C° 0 mm 3 mps 721 mmHg 85%
    05:00 +12°C° 0 mm 3 mps 721 mmHg 82%
    06:00 +13°C° 0 mm 2 mps 721 mmHg 79%
    07:00 +14°C° 0 mm 2 mps 721 mmHg 76%
    08:00 +16°C° 0 mm 3 mps 722 mmHg 69%
    09:00 +18°C° 0 mm 3 mps 722 mmHg 61%
    10:00 +20°C° 0 mm 4 mps 722 mmHg 53%
    11:00 +21°C° 0 mm 5 mps 722 mmHg 50%
    12:00 +22°C° 0 mm 6 mps 722 mmHg 46%
    13:00 +23°C° 0 mm 7 mps 721 mmHg 43%
    14:00 +23°C° 0 mm 7 mps 721 mmHg 43%
    15:00 +23°C° 0 mm 7 mps 721 mmHg 43%
    16:00 +23°C° 0 mm 7 mps 720 mmHg 43%
    17:00 +21°C° 0 mm 7 mps 720 mmHg 47%
    18:00 +18°C° 0 mm 7 mps 720 mmHg 52%
    19:00 +17°C° 0 mm 7 mps 719 mmHg 56%
    20:00 +16°C° 0 mm 7 mps 719 mmHg 57%
    21:00 +16°C° 0 mm 7 mps 720 mmHg 57%
    22:00 +15°C° 0 mm 7 mps 720 mmHg 58%
    23:00 +15°C° 0 mm 7 mps 720 mmHg 58%

    Day after tomorrow, 26 April, Friday

    Time Temperature Precipitation Wind Pressure Humidity
    00:00 +15°C° 0 mm 7 mps 720 mmHg 59%
    01:00 +14°C° 0 mm 7 mps 720 mmHg 59%
    02:00 +14°C° 0 mm 7 mps 719 mmHg 60%
    03:00 +14°C° 0 mm 6 mps 719 mmHg 61%
    04:00 +14°C° 0 mm 6 mps 719 mmHg 62%
    05:00 +15°C° 0 mm 6 mps 719 mmHg 61%
    06:00 +15°C° 0 mm 6 mps 719 mmHg 60%
    07:00 +16°C° 0 mm 6 mps 719 mmHg 60%
    08:00 +18°C° 0 mm 7 mps 719 mmHg 55%
    09:00 +20°C° 0 mm 7 mps 719 mmHg 50%
    10:00 +22°C° 0 mm 8 mps 719 mmHg 46%
    11:00 +22°C° 0 mm 8 mps 719 mmHg 45%
    12:00 +22°C° 0 mm 8 mps 718 mmHg 44%
    13:00 +23°C° 0 mm 8 mps 718 mmHg 43%
    14:00 +23°C° 0 mm 7 mps 718 mmHg 44%
    15:00 +23°C° 0 mm 7 mps 717 mmHg 45%
    16:00 +23°C° 0 mm 7 mps 717 mmHg 46%
    17:00 +21°C° 0 mm 6 mps 718 mmHg 51%
    18:00 +19°C° 0 mm 5 mps 718 mmHg 55%
    19:00 +17°C° 0 mm 3 mps 718 mmHg 60%
    20:00 +14°C° 0 mm 3 mps 719 mmHg 64%
    21:00 +13°C° 0 mm 3 mps 720 mmHg 68%
    22:00 +11°C° 0 mm 3 mps 720 mmHg 72%
    23:00 +11°C° 0 mm 3 mps 720 mmHg 68%

    27 April, Saturday

    Time Temperature Precipitation Wind Pressure Humidity
    00:00 +11°C° 0 mm 3 mps 721 mmHg 64%
    01:00 +10°C° 0 mm 4 mps 721 mmHg 60%
    02:00 +10°C° 0.1 mm 4 mps 721 mmHg 62%
    03:00 +10°C° 0.1 mm 4 mps 721 mmHg 64%
    04:00 +8°C° 0.1 mm 4 mps 721 mmHg 67%
    05:00 +8°C° 0.1 mm 4 mps 721 mmHg 69%
    06:00 +9°C° 0.1 mm 3 mps 721 mmHg 71%
    07:00 +9°C° 0.1 mm 3 mps 722 mmHg 73%
    08:00 +9°C° 0.1 mm 3 mps 722 mmHg 71%
    09:00 +10°C° 0.1 mm 2 mps 722 mmHg 69%
    10:00 +10°C° 0.1 mm 2 mps 722 mmHg 67%
    11:00 +11°C° 0.1 mm 3 mps 722 mmHg 63%
    12:00 +13°C° 0.1 mm 3 mps 721 mmHg 58%
    13:00 +14°C° 0.1 mm 3 mps 721 mmHg 53%
    14:00 +14°C° 0 mm 3 mps 721 mmHg 51%
    15:00 +16°C° 0 mm 2 mps 720 mmHg 49%
    16:00 +16°C° 0 mm 2 mps 720 mmHg 47%
    17:00 +14°C° 0.1 mm 2 mps 720 mmHg 54%
    18:00 +13°C° 0.1 mm 2 mps 720 mmHg 61%
    19:00 +11°C° 0.1 mm 1 mps 720 mmHg 68%
    20:00 +10°C° 0 mm 2 mps 720 mmHg 71%
    21:00 +9°C° 0 mm 2 mps 721 mmHg 74%
    22:00 +8°C° 0 mm 3 mps 721 mmHg 77%
    23:00 +8°C° 0 mm 3 mps 721 mmHg 77%

    28 April, Sunday

    Time Temperature Precipitation Wind Pressure Humidity
    00:00 +7°C° 0 mm 2 mps 721 mmHg 77%
    01:00 +7°C° 0 mm 2 mps 721 mmHg 77%
    02:00 +7°C° 0 mm 3 mps 721 mmHg 78%
    03:00 +7°C° 0 mm 3 mps 721 mmHg 79%
    04:00 +5°C° 0 mm 3 mps 721 mmHg 80%
    05:00 +7°C° 0 mm 3 mps 721 mmHg 76%
    06:00 +8°C° 0 mm 4 mps 721 mmHg 72%
    07:00 +9°C° 0 mm 5 mps 722 mmHg 68%
    08:00 +10°C° 0 mm 5 mps 722 mmHg 61%
    09:00 +13°C° 0 mm 5 mps 722 mmHg 55%
    10:00 +14°C° 0 mm 6 mps 722 mmHg 49%
    11:00 +14°C° 0 mm 6 mps 722 mmHg 49%
    12:00 +15°C° 0 mm 6 mps 722 mmHg 49%
    13:00 +15°C° 0 mm 6 mps 721 mmHg 49%
    14:00 +15°C° 0 mm 6 mps 721 mmHg 50%
    15:00 +15°C° 0 mm 6 mps 721 mmHg 51%
    16:00 +15°C° 0 mm 5 mps 721 mmHg 52%
    17:00 +13°C° 0 mm 5 mps 721 mmHg 59%
    18:00 +12°C° 0 mm 4 mps 721 mmHg 65%
    19:00 +11°C° 0 mm 4 mps 721 mmHg 72%
    20:00 +10°C° 0 mm 4 mps 721 mmHg 73%
    21:00 +10°C° 0 mm 3 mps 722 mmHg 75%
    22:00 +9°C° 0 mm 3 mps 722 mmHg 77%
    23:00 +8°C° 0 mm 4 mps 721 mmHg 78%

    29 April, Monday

    Time Temperature Precipitation Wind Pressure Humidity
    00:00 +8°C° 0 mm 4 mps 721 mmHg 79%
    01:00 +8°C° 0 mm 4 mps 721 mmHg 80%
    02:00 +8°C° 0.4 mm 4 mps 720 mmHg 83%
    03:00 +7°C° 0.4 mm 4 mps 720 mmHg 85%
    04:00 +7°C° 0.4 mm 4 mps 720 mmHg 88%
    05:00 +7°C° 1.3 mm 5 mps 719 mmHg 88%
    06:00 +7°C° 1.3 mm 5 mps 719 mmHg 88%
    07:00 +7°C° 1.3 mm 6 mps 719 mmHg 88%
    08:00 +7°C° 1.6 mm 6 mps 719 mmHg 88%
    09:00 +7°C° 1.6 mm 6 mps 719 mmHg 87%
    10:00 +7°C° 1.6 mm 6 mps 718 mmHg 86%
    11:00 +7°C° 1.2 mm 5 mps 718 mmHg 86%
    12:00 +7°C° 1.2 mm 5 mps 718 mmHg 87%
    13:00 +8°C° 1.2 mm 4 mps 718 mmHg 88%
    14:00 +8°C° 1.4 mm 4 mps 718 mmHg 89%
    15:00 +8°C° 1.4 mm 4 mps 718 mmHg 90%
    16:00 +8°C° 1.4 mm 4 mps 718 mmHg 91%
    17:00 +8°C° 0.3 mm 4 mps 718 mmHg 90%
    18:00 +8°C° 0.3 mm 4 mps 718 mmHg 88%
    19:00 +9°C° 0.3 mm 3 mps 718 mmHg 87%
    20:00 +8°C° 0.2 mm 3 mps 718 mmHg 89%
    21:00 +8°C° 0.2 mm 3 mps 719 mmHg 90%
    22:00 +8°C° 0.2 mm 3 mps 719 mmHg 91%
    23:00 +8°C° 0.8 mm 3 mps 719 mmHg 92%
    Show more